Regional Weather Roundup
Issued by NWS Cleveland, OH

Home | Current Version | Previous Version | Graphics & Text | Print | Product List | Glossary On
Versions: 1 2 3 4 5 6 7 8 9 10 11 12 13 14 15 16 17 18 19 20 21 22 23 24 25 26 27 28 29 30 31 32 33 34 35 36 37 38 39 40 41 42 43 44 45 46 47 48 49 50
000
ASUS41 KCLE 011210
RWRCLE
OHIO REGIONAL WEATHER ROUNDUP
NATIONAL WEATHER SERVICE CLEVELAND, OH
800 AM EDT WED APR 01 2015

NOTE: "FAIR" INDICATES FEW OR NO CLOUDS BELOW 12,000 FEET WITH NO
SIGNIFICANT WEATHER AND/OR OBSTRUCTIONS TO VISIBILITY.

OHZ001>008-015>018-024>027-034-035-043-044-011300-
   NORTHWEST OHIO

CITY           SKY/WX    TMP DP  RH WIND       PRES   REMARKS
DEFIANCE       CLEAR     31  29  92 CALM      30.07R FOG
FINDLAY        CLEAR     32  29  88 S8        30.05R WCI  25
TOLEDO EXPRESS CLEAR     29  28  96 CALM      30.06R FOG
TOLEDO EXEC    CLEAR     30  26  85 SW3       30.08R
LIMA           CLEAR     35  30  82 S12       30.06R WCI  27
$$

OHZ009>014-019>023-028>033-038-089-011300-
   NORTHEAST OHIO

CITY           SKY/WX    TMP DP  RH WIND       PRES   REMARKS
CLE-HOPKINS    PTCLDY    33  29  85 S5        30.10R WCI  29
CLE-LAKEFRONT  FAIR      34  29  82 SE6       30.08R WCI  29
CUY CO. ARPT   MOCLDY    34  30  86 SE5       30.08R WCI  30
LORAIN-ELYRIA  CLEAR     30  28  92 SW5       30.07R WCI  25
ASHTABULA      CLOUDY    31  28  89 CALM      30.09R FOG
AKRON-CANTON   PTCLDY    29  25  85 S6        30.07R FOG     WCI  23
WOOSTER        PTCLDY    30  28  92 S5        30.08R WCI  25
MANSFIELD      CLEAR     32  29  88 S8        30.06R WCI  25
YOUNGSTOWN     MOCLDY    28  26  92 CALM      30.08R
$$

OHZ042-051>053-060>062-070>072-077>081-011300-
  SOUTHWEST OHIO

CITY           SKY/WX    TMP DP  RH WIND       PRES   REMARKS
CINC-COVINGTON CLEAR     34  31  88 S5        30.10R WCI  30
CINC-LUNKEN    CLEAR     31  31 100 CALM      30.13R
HAMILTON       CLEAR     30  29  96 CALM      30.12R
DAYTON         CLEAR     36  32  85 S10       30.09R
WRIGHT-PAT AFB CLEAR     31  29  94 S3        30.10R
DAYTON GENERAL CLEAR     31  30  96 S5        30.09R WCI  26
WILMINGTON     CLEAR     32  29  88 S6        30.09R WCI  26
$$

OHZ036-037-039>041-045>050-054>059-063>069-073>076-082>088-011300-
  CENTRAL AND SOUTHEAST OHIO

CITY           SKY/WX    TMP DP  RH WIND       PRES   REMARKS
COLUMBUS       CLEAR     31  29  92 E5        30.10R WCI  26
OSU AIRPORT    CLEAR     30  29  96 CALM      30.10R FOG
BOLTON FIELD   CLEAR     28  28 100 CALM      30.10R FOG
RICKENBACK AFB CLEAR     26  26  96 S3        30.10R FOG
NEWARK         CLEAR     28  25  88 CALM      30.10R
MARION         CLEAR     29  27  92 S9        30.08R FOG     WCI  20
LANCASTER      CLEAR     27  25  92 S3        30.11R
ZANESVILLE     CLEAR     25  22  88 S3        30.11R
NEW PHILLY     CLEAR     27  23  85 SE5       30.11R FOG     WCI  22
$$



USA.gov is the U.S. government's official web portal to all federal, state and local government web resources and services.